Date String (YYYY-MM-DD hh:mm:ss) UTC,Instrument flags,Ambient pressure (hPa),Sample flow (lpm),Bypass flow (lpm),Sample temperature (°C),Ambient temperature (°C),ASC tube jacket temperature (°C),LED temperature (°C),Box temperature (°C),Sample RH (%),Span deviation,Mass concentration (μg/m³),Mass concentration (μg/m³),Mass concentration (μg/m³)
DateTimeUTC,F1_M11,P_M11,Q1_M11,Q2_M11,T1_M11,T2_M11,T3_M11,T4_M11,T5_M11,U1_M11,ZSPAN_M11,X0_M11,X2_M11,X1_M11
2022-09-17 19:00:00,,0824.1,5.00,0.00,30.0,26.7,00.0,38.7,31.7,19.6,0000.0,0009.00,0004.00,0003.66
2022-09-17 19:01:00,,0824.1,5.01,0.00,29.9,27.0,00.0,38.6,31.6,19.7,0000.0,0008.41,0003.97,0003.65
2022-09-17 19:02:00,,0824.1,4.99,0.00,29.9,27.3,00.0,38.6,31.6,19.8,0000.0,0008.58,0003.99,0003.64
2022-09-17 19:03:00,,0824.1,5.00,0.00,29.9,27.6,00.0,38.6,31.6,19.8,0000.0,0009.07,0004.01,0003.65
2022-09-17 19:04:00,,0824.1,5.01,0.00,29.9,27.9,00.0,38.6,31.6,20.3,0000.0,0009.36,0004.01,0003.64
2022-09-17 19:05:00,,0824.1,4.99,0.00,29.9,28.1,00.0,38.6,31.7,20.2,0000.0,0010.23,0004.01,0003.64
2022-09-17 19:06:00,,0824.1,5.00,0.00,29.9,28.3,00.0,38.6,31.7,20.0,0000.0,0010.33,0003.98,0003.62
2022-09-17 19:07:00,,0824.0,4.99,0.00,29.9,28.5,00.0,38.6,31.8,20.0,0000.0,0010.44,0003.99,0003.62
2022-09-17 19:08:00,,0824.0,5.00,0.00,29.9,28.6,00.0,38.6,31.8,20.4,0000.0,0010.17,0004.01,0003.62
2022-09-17 19:09:00,,0824.0,4.99,0.00,29.9,28.7,00.0,38.6,31.8,20.7,0000.0,0011.05,0004.04,0003.62
2022-09-17 19:10:00,,0824.0,5.00,0.00,30.0,28.8,00.0,38.6,31.9,20.3,0000.0,0010.77,0004.03,0003.61
2022-09-17 19:11:00,,0824.0,5.00,0.00,30.0,28.9,00.0,38.6,31.9,20.1,0000.0,0010.95,0004.06,0003.61
2022-09-17 19:12:00,,0824.0,5.01,0.00,30.0,28.9,00.0,38.7,31.9,20.0,0000.0,0011.05,0004.09,0003.63
2022-09-17 19:13:00,,0823.9,5.00,0.00,30.1,29.0,00.0,38.7,32.0,20.1,0000.0,0011.23,0004.07,0003.63
2022-09-17 19:14:00,,0823.9,4.99,0.00,30.1,29.1,00.0,38.7,32.0,19.9,0000.0,0011.42,0004.05,0003.62
2022-09-17 19:15:00,,0824.0,5.01,0.00,30.1,29.1,00.0,38.7,32.1,19.8,0000.0,0011.21,0004.05,0003.61
2022-09-17 19:16:00,,0823.9,5.00,0.00,30.2,29.2,00.0,38.8,32.1,19.7,0000.0,0010.50,0004.14,0003.61
2022-09-17 19:17:00,,0823.9,5.01,0.00,30.2,28.4,00.0,38.8,32.1,19.8,0000.0,0010.21,0004.14,0003.61
2022-09-17 19:18:00,,0823.9,4.99,0.00,30.2,27.0,00.0,38.8,31.9,19.8,0000.0,0009.81,0004.10,0003.60
2022-09-17 19:19:00,,0823.9,5.01,0.00,30.1,26.6,00.0,38.7,31.9,19.8,0000.0,0009.58,0004.04,0003.59
2022-09-17 19:20:00,,0823.9,5.00,0.00,30.0,26.8,00.0,38.7,31.8,19.9,0000.0,0008.90,0004.03,0003.59
2022-09-17 19:21:00,,0823.8,5.00,0.00,30.0,27.1,00.0,38.6,31.6,20.2,0000.0,0009.00,0004.03,0003.59
2022-09-17 19:22:00,,0823.8,4.99,0.00,29.9,27.5,00.0,38.6,31.6,19.9,0000.0,0008.93,0004.04,0003.58
2022-09-17 19:23:00,,0823.8,5.01,0.00,29.9,27.8,00.0,38.6,31.7,20.1,0000.0,0008.77,0004.01,0003.57
2022-09-17 19:24:00,,0823.8,5.00,0.00,29.9,28.1,00.0,38.6,31.7,19.9,0000.0,0008.62,0004.01,0003.56
2022-09-17 19:25:00,,0823.8,4.99,0.00,29.9,28.3,00.0,38.6,31.7,20.1,0000.0,0007.86,0004.03,0003.56
2022-09-17 19:26:00,,0823.8,5.01,0.00,29.9,28.4,00.0,38.6,31.8,20.2,0000.0,0008.18,0004.05,0003.56
2022-09-17 19:27:00,,0823.8,4.99,0.00,29.9,28.6,00.0,38.6,31.8,20.3,0000.0,0008.18,0003.97,0003.55
2022-09-17 19:28:00,,0823.8,5.00,0.00,30.0,28.7,00.0,38.6,31.9,19.9,0000.0,0008.24,0003.99,0003.57
2022-09-17 19:29:00,,0823.7,4.98,0.00,30.0,28.8,00.0,38.7,31.9,19.7,0000.0,0009.13,0004.03,0003.57
2022-09-17 19:30:00,,0823.7,5.01,0.00,30.0,28.9,00.0,38.7,32.0,19.9,0000.0,0010.09,0004.03,0003.57
2022-09-17 19:31:00,,0823.8,5.00,0.00,30.1,29.0,00.0,38.7,32.0,19.8,0000.0,0009.92,0004.02,0003.57
2022-09-17 19:32:00,,0823.7,4.99,0.00,30.1,28.8,00.0,38.7,32.0,19.8,0000.0,0009.54,0004.00,0003.56
2022-09-17 19:33:00,,0823.7,5.00,0.00,30.1,27.5,00.0,38.7,31.9,20.0,0000.0,0010.00,0004.00,0003.57
2022-09-17 19:34:00,,0823.7,5.00,0.00,30.0,26.6,00.0,38.7,31.8,20.2,0000.0,0010.06,0003.99,0003.58
2022-09-17 19:35:00,,0823.7,5.01,0.00,30.0,26.7,00.0,38.6,31.7,20.6,0000.0,0010.04,0003.99,0003.58
2022-09-17 19:36:00,,0823.7,5.00,0.00,29.9,26.9,00.0,38.6,31.6,20.4,0000.0,0009.87,0003.98,0003.59
2022-09-17 19:37:00,,0823.7,5.01,0.00,29.9,27.3,00.0,38.6,31.6,20.2,0000.0,0009.66,0003.97,0003.60
2022-09-17 19:38:00,,0823.6,4.99,0.00,29.8,27.6,00.0,38.6,31.6,20.4,0000.0,0009.84,0003.97,0003.60
2022-09-17 19:39:00,,0823.7,4.99,0.00,29.8,27.9,00.0,38.5,31.6,20.4,0000.0,0010.42,0003.97,0003.60
2022-09-17 19:40:00,,0823.6,5.01,0.00,29.8,28.1,00.0,38.5,31.7,20.2,0000.0,0009.63,0003.96,0003.60
2022-09-17 19:41:00,,0823.7,4.99,0.00,29.9,28.3,00.0,38.6,31.7,20.3,0000.0,0008.79,0003.96,0003.59
2022-09-17 19:42:00,,0823.7,5.01,0.00,29.9,28.4,00.0,38.6,31.7,20.3,0000.0,0009.18,0003.98,0003.59
2022-09-17 19:43:00,,0823.7,4.99,0.00,29.9,28.6,00.0,38.6,31.8,20.1,0000.0,0010.36,0004.01,0003.59
2022-09-17 19:44:00,,0823.7,5.00,0.00,29.9,28.7,00.0,38.6,31.8,20.2,0000.0,0010.35,0004.04,0003.60
2022-09-17 19:45:00,,0823.6,5.01,0.00,30.0,28.9,00.0,38.6,31.9,20.1,0000.0,0010.62,0004.06,0003.60
2022-09-17 19:46:00,,0823.6,5.00,0.00,30.0,29.0,00.0,38.6,31.9,20.2,0000.0,0011.87,0004.06,0003.62
2022-09-17 19:47:00,,0823.6,4.99,0.00,30.0,29.0,00.0,38.7,32.0,20.2,0000.0,0012.04,0004.09,0003.63
2022-09-17 19:48:00,,0823.6,5.00,0.00,30.1,28.1,00.0,38.7,32.0,20.2,0000.0,0012.01,0004.12,0003.63
2022-09-17 19:49:00,,0823.6,5.00,0.00,30.0,26.8,00.0,38.6,31.9,20.0,0000.0,0011.80,0004.14,0003.65
2022-09-17 19:50:00,,0823.6,5.00,0.00,30.0,26.5,00.0,38.6,31.8,19.9,0000.0,0011.27,0004.12,0003.66
2022-09-17 19:51:00,,0823.5,4.99,0.00,29.9,26.7,00.0,38.6,31.6,20.2,0000.0,0011.80,0004.14,0003.68
2022-09-17 19:52:00,,0823.6,5.00,0.00,29.9,27.0,00.0,38.5,31.5,20.3,0000.0,0011.88,0004.14,0003.70
2022-09-17 19:53:00,,0823.6,5.00,0.00,29.8,27.4,00.0,38.5,31.5,20.3,0000.0,0011.87,0004.16,0003.71
2022-09-17 19:54:00,,0823.5,4.99,0.00,29.8,27.8,00.0,38.5,31.6,20.4,0000.0,0011.13,0004.17,0003.73
2022-09-17 19:55:00,,0823.5,5.01,0.00,29.8,28.0,00.0,38.5,31.6,20.3,0000.0,0010.42,0004.17,0003.73
2022-09-17 19:56:00,,0823.4,4.99,0.00,29.8,28.2,00.0,38.5,31.7,20.5,0000.0,0010.67,0004.15,0003.73
2022-09-17 19:57:00,,0823.4,5.01,0.00,29.9,28.4,00.0,38.5,31.7,20.7,0000.0,0009.41,0004.17,0003.72
2022-09-17 19:58:00,,0823.4,4.99,0.00,29.9,28.5,00.0,38.5,31.8,20.5,0000.0,0009.33,0004.19,0003.72
2022-09-17 19:59:00,,0823.4,5.01,0.00,29.9,28.7,00.0,38.6,31.8,20.7,0000.0,0009.25,0004.18,0003.72
